Location: Les Gen�tes
(46.3104°N, 1.5969°E)
Time: 02:44:29
(UTC+00:00)

Cosmos 1606 Rocket - Pass Details

Date: 01 June 2020
Orbit: 603 x 631 km, 82.5° (Epoch: 11 July)

Event Time Altitude Azimuth Distance (km) Brightness Sun altitude
Rises 23:14:19 0° 353° (N) 2,871 8.6 -21.0°
Reaches altitude 10° 23:16:33 10° 357° (N) 1,964 7.3 -21.0°
Maximum altitude 23:20:52 63° 79° (E) 679 3.7 -21.1°
Enters shadow 23:21:38 52° 128° (SE) 756 3.7 -21.1°
